Temperature
19 20 20 20 20 20 20 20 20 20 20 20 20 20 20 20 20 20 20 20 20 20 20 20 20 20 20 20 19 19 19 19 19 19 19 19 19 19 18 18 18 18 18
20 20 20 20 20 20 20 20 20 20 20 20 20 20 20 20 20 20 20 20 20 20 20 20 20 19 19 19 19 19 19 19 19 19 19 19 19 19 19 18 18 18 18
21 20 20 20 20 20 20 20 20 20 20 20 20 20 20 20 20 20 20 20 20 20 19 19 19 19 19 19 19 19 19 19 19 19 19 19 19 19 19 19 18 18 18
21 20 20 20 20 20 20 20 20 20 20 20 20 20 20 20 20 20 20 20 20 20 19 19 19 19 19 19 19 19 18 18 18 19 19 18 18 19 19 19 18 18 18
21 21 20 20 20 20 20 20 20 20 20 20 20 20 20 20 20 20 20 20 20 19 19 19 19 19 19 19 19 19 18 18 18 18 18 18 18 19 19 19 18 18 18
21 21 21 21 20 20 20 20 20 20 20 20 19 19 19 19 20 20 20 20 20 20 19 19 19 19 19 19 19 18 18 18 18 18 18 18 18 19 19 19 18 18 18
21 21 21 21 21 21 20 20 20 20 20 19 19 19 19 19 19 19 20 20 20 19 19 19 19 19 18 18 19 18 18 18 18 18 18 18 19 19 19 18 18 18 18
20 20 20 20 20 20 20 20 20 20 20 20 19 19 19 19 19 19 19 19 19 19 19 19 19 19 19 18 18 18 18 18 18 18 18 18 19 19 19 18 18 18 18
20 20 20 19 19 20 20 20 20 20 20 19 19 19 19 19 19 19 19 19 19 19 19 19 19 19 19 19 18 18 18 18 18 18 18 18 18 19 19 19 18 18 18
19 19 19 19 19 19 19 19 19 19 19 19 19 19 19 19 19 19 19 19 19 19 19 19 19 19 19 19 18 18 18 18 18 18 18 18 18 18 19 19 18 18 18
19 19 19 19 19 19 19 19 18 19 19 19 19 19 19 19 19 19 19 19 19 19 19 19 19 19 19 19 18 18 18 18 18 18 18 18 18 18 19 19 18 18 18
18 18 18 18 19 19 19 19 19 18 18 19 19 19 19 19 19 19 19 18 18 18 18 19 19 19 19 19 19 18 18 18 18 18 18 18 18 18 19 19 18 18 18
18 18 18 18 18 18 18 18 18 19 19 19 19 19 19 19 19 18 18 18 18 18 18 19 19 19 19 19 19 19 18 18 18 18 18 18 18 18 19 19 19 18 18
17 17 17 17 18 18 18 18 18 18 18 18 18 18 18 18 19 19 18 18 18 18 18 18 19 19 19 19 19 18 18 18 18 18 18 18 18 18 18 18 18 18 18
17 17 17 17 17 17 17 17 17 18 18 18 18 18 18 18 18 18 18 18 18 18 18 18 19 19 19 19 19 18 18 18 18 18 18 18 18 18 18 18 18 18 18
17 17 17 17 17 17 17 17 17 17 17 18 18 18 18 18 18 18 18 18 18 18 18 18 18 18 18 18 19 19 18 18 18 18 18 18 18 18 18 18 18 18 18
16 16 16 16 16 16 16 16 16 17 17 17 17 17 17 18 18 18 18 18 18 18 18 18 18 18 18 18 19 19 19 18 18 18 18 18 18 18 18 18 18 18 18
15 15 15 15 15 15 15 16 16 16 16 16 17 17 17 17 17 17 18 18 18 18 18 18 18 18 18 18 19 19 19 19 19 18 18 19 18 18 18 18 18 18 18
14 14 14 14 14 15 15 15 15 15 16 16 16 16 17 17 17 17 17 18 18 18 18 18 18 18 18 18 18 19 19 19 19 19 19 19 19 18 18 18 18 18 18
14 14 14 14 14 14 14 15 15 15 15 15 16 16 16 16 16 17 17 17 17 17 17 18 18 18 18 18 18 19 19 19 19 19 19 19 19 18 18 18 18 18 18
13 13 13 13 13 14 14 14 14 15 15 15 15 15 15 16 16 16 17 17 17 17 17 17 17 18 18 18 18 18 19 19 19 19 19 19 19 18 18 18 18 18 18
13 13 13 13 13 13 13 13 13 14 14 14 15 15 15 15 16 16 16 16 17 17 17 17 17 17 17 17 17 17 18 18 18 18 19 19 19 18 18 18 18 18 18
13 12 12 12 13 13 13 13 13 14 14 14 14 14 15 15 15 16 16 16 16 16 17 17 17 17 17 17 17 17 17 18 18 18 18 18 18 18 18 18 18 18 18
13 12 12 12 12 12 13 13 13 13 13 13 14 14 14 15 15 15 16 16 16 16 16 17 17 17 17 17 17 17 17 17 17 18 18 18 18 18 18 18 18 18 18
13 13 12 12 12 12 12 13 13 13 13 13 13 14 14 15 15 15 15 16 16 16 16 16 16 17 17 17 17 17 16 17 17 17 18 18 18 18 18 18 18 18 18
13 13 13 12 12 12 12 12 12 12 13 13 13 13 14 14 14 15 15 15 15 16 16 16 16 16 16 16 17 17 17 17 17 17 17 17 17 17 17 17 17 17 18
Wind_Speed
6 10 14 13 13 13 12 12 12 11 10 9 8 8 8 8 7 7 7 7 7 7 6 7 7 8 8 8 8 9 9 10 10 10 10 11 11 11 11 12 11 10 12
10 13 15 14 13 13 12 12 11 11 10 10 9 8 7 7 7 6 6 6 6 6 6 6 6 6 6 6 6 7 7 8 7 7 9 9 10 11 11 11 10 9 10
12 13 14 13 13 12 12 11 11 10 10 9 9 8 7 7 6 5 5 5 5 5 5 5 6 6 6 5 4 5 6 7 7 5 7 7 8 10 10 10 9 9 9
14 14 13 13 12 12 11 11 10 9 9 8 8 8 7 7 6 5 4 4 4 4 4 4 5 5 5 4 2 3 4 6 7 6 7 5 6 9 9 9 9 8 8
13 14 14 14 13 12 11 10 10 9 9 8 8 7 7 7 6 6 5 5 4 4 4 4 4 4 4 3 2 1 2 4 6 7 8 7 7 8 9 8 8 8 8
12 14 15 15 14 13 12 11 10 10 9 9 8 7 7 7 6 6 6 5 5 4 4 4 4 4 4 3 2 0 2 4 5 7 8 7 7 8 8 8 8 7 7
11 13 15 16 15 14 13 12 11 10 10 9 9 8 8 7 7 6 6 6 5 5 4 4 5 5 5 4 3 2 1 3 3 6 7 6 7 8 8 8 7 7 7
10 11 13 16 15 15 14 13 12 12 11 11 10 10 9 9 8 7 7 7 6 6 5 5 5 6 6 5 4 4 2 2 3 7 8 7 8 8 8 7 7 7 7
5 5 6 10 12 14 14 14 14 14 13 12 12 11 11 10 9 9 8 8 8 7 7 6 6 6 7 6 6 5 3 1 4 8 8 7 9 9 8 7 6 6 7
7 5 3 1 5 8 12 14 15 15 15 14 14 13 13 12 11 11 10 10 10 9 9 8 8 8 8 8 8 7 4 1 3 8 8 9 10 9 8 7 6 6 7
7 6 5 4 4 4 7 11 14 15 16 16 15 15 15 13 12 12 12 12 12 12 11 10 10 9 9 9 9 8 5 2 3 8 10 10 11 9 8 8 7 6 6
5 4 4 4 4 4 4 5 8 12 13 15 14 15 14 13 13 13 14 16 15 15 13 12 11 11 10 8 9 9 6 5 5 8 10 12 11 10 9 8 8 7 6
4 5 4 3 5 4 3 3 4 6 8 11 13 14 14 12 12 12 10 12 15 15 13 12 11 10 9 8 8 8 8 7 7 9 11 14 12 11 9 9 8 7 7
5 6 5 4 4 4 4 4 3 3 4 5 8 12 10 7 7 8 7 9 10 11 10 9 8 9 10 11 10 9 9 8 9 11 14 16 14 12 11 10 9 8 8
7 7 6 6 4 4 3 3 3 3 4 6 6 8 10 6 6 6 6 8 9 10 8 7 7 7 7 9 10 10 8 10 10 12 14 17 16 14 12 11 10 9 8
8 9 8 7 5 5 3 4 3 4 6 6 7 8 9 8 6 5 5 5 7 10 10 8 7 6 6 6 8 9 10 10 11 14 14 16 17 15 14 13 12 11 10
8 9 10 9 7 7 6 5 4 5 6 5 6 9 9 8 7 5 6 6 7 11 11 8 7 5 6 7 9 10 8 10 12 14 15 14 15 15 15 14 13 12 12
8 9 10 11 10 9 8 6 5 5 5 5 7 9 10 10 8 6 6 6 7 8 7 7 6 5 6 6 6 7 7 8 11 13 14 14 14 13 15 16 15 14 13
8 9 9 9 9 9 8 6 5 5 5 6 7 7 9 10 9 6 5 6 7 5 6 7 6 5 4 4 5 5 5 7 10 11 10 13 14 14 15 16 16 16 15
8 8 8 9 9 9 7 6 5 5 5 5 5 6 9 9 9 6 5 6 6 5 5 5 5 5 4 4 5 3 3 5 7 10 11 11 13 14 15 14 15 15 16
9 9 9 9 9 8 6 5 5 5 6 5 5 6 7 8 8 6 5 5 6 6 7 7 5 5 4 3 1 1 1 1 4 6 8 8 9 13 14 14 14 13 14
8 9 9 9 9 8 6 5 4 5 5 5 4 5 6 7 7 6 6 6 6 6 7 7 6 5 4 4 3 2 1 2 2 3 4 7 9 9 10 13 13 14 14
8 9 9 9 9 9 8 6 5 4 4 4 5 4 5 6 6 5 6 6 7 7 7 8 8 8 6 5 4 4 4 5 3 2 3 4 6 6 7 8 11 13 15
7 8 8 8 8 9 8 7 6 5 5 5 5 5 6 6 5 5 5 6 7 7 8 9 9 7 7 6 5 4 3 3 4 3 2 2 4 6 7 7 7 10 14
7 7 7 8 8 8 8 8 7 6 5 5 5 6 6 6 5 5 5 6 6 7 8 9 8 8 7 7 6 5 4 2 2 3 3 2 2 3 5 6 5 7 12
6 7 7 8 8 8 8 8 7 8 8 8 7 7 6 5 5 5 4 4 5 5 7 8 9 10 9 9 7 6 6 5 4 4 3 3 3 3 3 4 5 5 10
Wind_Direction
158 165 151 142 135 132 133 134 134 135 132 127 123 117 110 103 97 93 91 91 89 90 92 94 93 91 86 80 72 68 67 67 69 73 76 77 75 77 88 95 94 92 96
154 160 151 145 139 135 135 137 138 138 138 137 134 129 122 115 108 102 96 94 94 96 97 101 103 104 99 88 75 66 61 59 59 72 78 79 80 80 89 97 96 97 97
147 154 151 147 142 139 138 139 141 142 143 144 143 141 137 132 126 117 109 104 105 108 108 113 119 119 114 102 82 63 50 43 41 71 98 90 86 86 90 94 97 99 100
147 151 153 151 146 144 143 143 144 146 149 151 152 152 151 148 146 142 135 127 124 125 128 131 139 137 132 122 96 60 40 33 37 79 113 102 90 91 90 91 93 98 100
149 155 157 156 153 151 151 151 153 156 158 161 163 164 165 164 163 160 156 150 147 147 150 150 153 156 154 149 140 61 28 28 49 94 112 104 96 95 92 93 94 97 100
154 159 162 163 162 162 162 162 165 168 170 173 176 178 179 179 178 174 170 168 166 166 169 171 172 173 175 179 193 259 6 30 67 108 124 116 105 100 96 95 94 96 98
157 164 169 171 172 172 173 175 177 180 183 185 186 188 190 191 189 186 183 181 179 181 184 187 193 193 195 203 219 250 326 8 100 131 131 123 113 105 102 98 96 94 95
158 167 178 180 181 183 184 186 189 192 194 196 197 197 199 200 199 199 197 194 191 193 197 199 206 207 208 215 230 246 273 5 93 140 142 138 128 116 109 106 103 98 94
122 145 179 193 195 198 199 200 201 202 203 205 206 205 206 207 207 208 207 205 203 202 205 209 214 217 219 225 234 243 252 72 122 149 154 151 140 127 120 115 109 107 103
55 48 38 223 223 223 220 216 215 213 211 211 211 211 212 215 215 216 215 215 213 211 212 214 218 223 226 231 236 242 246 146 151 176 166 165 151 140 133 127 121 117 111
43 35 30 19 352 310 259 238 232 230 225 220 217 216 216 217 220 222 221 220 220 219 218 218 221 225 229 235 239 242 243 189 164 171 176 174 160 151 145 141 136 129 122
27 21 24 11 359 344 312 272 247 240 235 228 221 220 217 214 217 223 226 227 225 223 222 223 225 228 232 237 245 246 234 205 184 180 190 181 169 162 157 153 149 144 136
14 10 11 357 349 346 329 319 280 253 248 240 230 224 218 214 215 223 225 232 230 225 222 226 229 230 232 234 240 242 233 216 205 195 198 187 177 171 166 163 160 158 153
13 358 349 344 337 331 328 315 297 279 269 255 245 235 223 219 216 215 219 223 218 215 214 219 223 230 235 239 241 240 236 222 212 200 197 191 183 179 176 172 169 168 169
9 355 341 331 327 322 318 306 303 288 278 270 261 245 225 220 221 218 215 217 211 207 208 216 222 226 233 240 242 237 231 225 210 195 194 194 188 185 183 180 177 176 176
3 353 344 334 330 319 304 288 279 275 275 272 260 252 237 226 224 219 214 210 211 208 211 217 222 222 229 231 236 234 226 215 205 194 191 194 193 189 186 185 184 183 183
360 355 350 342 343 329 312 291 288 278 275 268 263 262 255 239 230 220 218 217 215 209 208 215 230 231 237 236 237 233 221 206 195 191 190 191 193 194 190 189 188 188 189
2 354 347 352 345 336 327 306 292 286 279 271 268 264 258 251 239 223 218 223 217 205 200 204 211 226 240 240 236 231 214 198 190 188 189 189 190 193 196 195 192 191 192
357 351 348 348 344 335 327 316 304 298 284 280 275 267 262 255 248 232 225 222 213 203 203 207 195 199 225 242 236 225 204 188 187 188 188 191 192 193 193 197 195 194 194
351 347 345 343 341 335 329 324 317 314 305 292 281 270 264 259 250 237 234 229 213 203 202 199 184 192 204 221 238 224 205 190 186 188 191 191 194 195 194 194 196 199 200
350 348 344 343 338 338 333 327 318 312 305 302 291 283 274 264 254 238 241 233 219 213 206 195 181 189 202 199 183 242 301 235 194 195 192 186 192 194 193 195 196 198 202
342 343 343 342 337 335 326 306 282 283 284 283 290 299 291 276 263 253 239 234 223 218 211 195 184 181 198 185 166 149 211 307 281 219 188 185 188 186 189 197 198 199 198
340 340 343 338 338 336 333 326 323 317 312 322 318 309 300 293 274 256 248 239 228 216 215 205 194 184 193 195 187 168 170 206 232 264 205 184 175 175 186 190 197 202 201
328 331 333 335 337 337 339 345 342 338 324 307 306 301 303 298 287 269 254 242 232 222 218 214 205 195 185 193 195 205 197 169 170 204 242 193 175 174 178 184 193 201 202
320 327 330 333 336 339 345 347 344 338 321 311 316 319 321 315 304 292 269 251 237 226 222 217 209 202 195 195 187 184 197 197 175 160 191 202 202 196 181 183 183 192 201
317 328 334 337 333 336 342 346 349 344 339 339 340 337 332 324 319 320 303 274 252 235 226 219 213 208 205 203 200 192 184 180 189 175 181 193 200 206 191 191 188 185 196
Height
1552 1553 1555 1556 1556 1557 1558 1558 1559 1559 1560 1560 1560 1560 1561 1561 1561 1561 1560 1560 1560 1560 1560 1560 1560 1560 1561 1561 1561 1560 1560 1559 1559 1558 1557 1556 1556 1555 1555 1555 1555 1555 1555
1551 1553 1555 1556 1557 1558 1558 1558 1559 1559 1559 1560 1560 1560 1560 1560 1560 1560 1560 1560 1560 1560 1560 1560 1560 1560 1561 1561 1561 1561 1561 1560 1560 1559 1558 1557 1557 1557 1556 1556 1556 1556 1556
1552 1554 1555 1556 1557 1558 1558 1559 1559 1559 1559 1559 1560 1560 1560 1560 1560 1560 1560 1560 1560 1559 1560 1560 1560 1560 1561 1561 1562 1561 1561 1561 1560 1560 1559 1559 1558 1558 1557 1557 1556 1556 1556
1553 1554 1555 1556 1557 1558 1558 1558 1559 1559 1559 1559 1559 1559 1559 1560 1560 1560 1560 1559 1559 1559 1559 1559 1559 1560 1560 1561 1561 1562 1561 1561 1561 1560 1560 1559 1559 1558 1558 1558 1557 1557 1557
1554 1555 1556 1557 1557 1558 1558 1558 1558 1558 1558 1558 1558 1559 1559 1559 1559 1559 1559 1559 1559 1559 1559 1559 1559 1559 1560 1560 1561 1561 1561 1561 1561 1561 1560 1560 1560 1559 1559 1558 1558 1558 1558
1555 1556 1556 1557 1557 1558 1558 1558 1558 1558 1558 1558 1558 1558 1558 1558 1558 1558 1558 1558 1558 1558 1558 1558 1558 1559 1559 1560 1561 1561 1561 1561 1561 1561 1561 1560 1560 1560 1560 1559 1559 1559 1559
1555 1556 1556 1557 1557 1557 1558 1558 1558 1557 1557 1557 1557 1557 1557 1557 1558 1558 1557 1557 1557 1557 1557 1557 1558 1558 1558 1559 1560 1561 1561 1561 1561 1561 1561 1561 1561 1561 1560 1560 1560 1560 1559
1556 1556 1557 1557 1557 1557 1557 1557 1557 1557 1556 1556 1556 1556 1556 1557 1557 1557 1557 1556 1556 1556 1556 1556 1557 1557 1558 1558 1559 1560 1561 1561 1561 1562 1562 1562 1562 1561 1561 1561 1560 1560 1560
1556 1556 1557 1557 1557 1557 1556 1556 1556 1556 1555 1555 1555 1555 1555 1556 1556 1556 1556 1556 1555 1555 1555 1555 1556 1556 1557 1557 1559 1560 1560 1561 1561 1562 1562 1563 1562 1562 1562 1561 1561 1561 1561
1555 1556 1556 1556 1555 1555 1555 1555 1555 1554 1554 1554 1554 1554 1554 1554 1554 1555 1555 1555 1554 1554 1554 1554 1555 1555 1556 1556 1557 1559 1560 1560 1561 1562 1562 1563 1563 1563 1562 1562 1562 1562 1562
1555 1555 1555 1554 1554 1553 1552 1553 1553 1552 1552 1552 1552 1552 1552 1552 1552 1553 1553 1553 1553 1553 1553 1553 1553 1554 1554 1555 1556 1558 1559 1560 1561 1562 1562 1563 1563 1563 1562 1562 1562 1562 1562
1555 1554 1554 1553 1552 1551 1550 1550 1549 1549 1549 1549 1549 1549 1549 1549 1550 1550 1551 1551 1551 1551 1552 1552 1552 1553 1553 1554 1555 1556 1558 1559 1560 1561 1562 1562 1562 1562 1562 1561 1562 1562 1562
1556 1554 1553 1551 1550 1549 1548 1547 1546 1546 1546 1546 1546 1546 1546 1546 1547 1547 1548 1548 1549 1549 1549 1550 1550 1551 1552 1553 1554 1555 1557 1558 1559 1560 1561 1562 1562 1561 1561 1560 1561 1561 1562
1555 1554 1552 1550 1549 1547 1545 1544 1543 1543 1543 1542 1542 1543 1543 1543 1543 1544 1544 1545 1546 1546 1547 1548 1548 1550 1551 1552 1553 1554 1555 1557 1558 1559 1560 1561 1561 1560 1560 1559 1559 1560 1561
1554 1552 1551 1549 1547 1545 1543 1542 1540 1540 1539 1539 1539 1539 1539 1539 1540 1540 1540 1542 1542 1543 1544 1545 1546 1548 1549 1550 1551 1553 1554 1555 1556 1558 1559 1560 1560 1559 1559 1558 1558 1559 1560
1553 1550 1548 1546 1544 1542 1540 1538 1537 1536 1535 1535 1535 1535 1535 1535 1536 1536 1537 1538 1538 1540 1541 1542 1544 1546 1547 1548 1549 1551 1552 1553 1555 1556 1557 1558 1559 1558 1558 1557 1557 1558 1559
1551 1548 1545 1543 1540 1538 1536 1534 1533 1532 1531 1531 1530 1530 1531 1531 1532 1532 1533 1533 1535 1536 1537 1539 1541 1543 1544 1546 1547 1548 1549 1551 1552 1554 1556 1557 1558 1558 1557 1557 1556 1557 1558
1549 1546 1542 1539 1536 1534 1532 1530 1529 1528 1527 1526 1526 1525 1526 1526 1527 1527 1528 1529 1531 1532 1533 1534 1536 1538 1540 1542 1543 1545 1546 1548 1549 1551 1553 1555 1556 1557 1557 1556 1556 1556 1557
1547 1543 1539 1536 1532 1530 1527 1526 1524 1523 1522 1521 1521 1521 1521 1521 1522 1522 1524 1525 1526 1527 1528 1530 1532 1534 1536 1538 1540 1542 1543 1545 1546 1549 1551 1553 1554 1555 1556 1555 1555 1555 1556
1545 1541 1536 1533 1529 1526 1523 1521 1520 1519 1518 1517 1516 1516 1516 1516 1516 1517 1518 1520 1522 1523 1524 1525 1527 1530 1532 1534 1536 1538 1540 1542 1544 1545 1548 1550 1551 1553 1554 1554 1554 1554 1555
1543 1538 1534 1530 1526 1523 1520 1517 1515 1514 1513 1512 1512 1511 1511 1511 1511 1512 1513 1515 1516 1518 1519 1520 1523 1525 1527 1530 1532 1534 1536 1538 1540 1542 1544 1546 1548 1550 1551 1552 1553 1554 1554
1542 1537 1533 1529 1525 1521 1518 1515 1512 1510 1508 1508 1507 1506 1506 1506 1506 1507 1508 1509 1511 1513 1514 1516 1518 1519 1521 1524 1526 1529 1532 1535 1536 1538 1540 1542 1544 1546 1548 1550 1551 1552 1553
1542 1537 1533 1528 1524 1521 1517 1514 1510 1508 1506 1504 1503 1502 1502 1502 1502 1502 1502 1504 1505 1507 1509 1510 1512 1514 1516 1519 1521 1524 1526 1528 1531 1533 1535 1537 1540 1542 1544 1546 1548 1550 1551
1542 1538 1533 1529 1525 1521 1517 1513 1509 1506 1503 1501 1500 1498 1498 1497 1497 1497 1497 1498 1499 1501 1502 1504 1507 1509 1511 1513 1515 1518 1521 1523 1526 1527 1530 1532 1535 1537 1539 1542 1544 1546 1548
1542 1538 1534 1530 1525 1521 1517 1513 1509 1506 1503 1500 1498 1496 1495 1494 1493 1493 1493 1493 1494 1495 1496 1498 1500 1503 1505 1507 1509 1512 1515 1518 1520 1522 1524 1527 1530 1532 1535 1537 1540 1542 1544
1543 1539 1535 1530 1526 1522 1518 1514 1510 1507 1503 1500 1497 1495 1493 1491 1490 1490 1489 1489 1489 1490 1491 1492 1494 1497 1499 1501 1504 1506 1509 1512 1513 1516 1519 1522 1524 1527 1530 1532 1535 1538 1540